{"data":{"norad_id":68584,"intl_designator":"2026-072M","name":"KUIPER-00253","alt_names":[],"object_type":"PAYLOAD","status":"ACTIVE","operator":null,"country":"US","launch_date":"2026-04-04","launch_site_code":"AFETR","launch_vehicle":null,"mission":null,"orbit_class":"UNKNOWN","rcs_meters":null,"size_class":null,"mass_kg":null,"dimensions":null,"purposes":[],"wikipedia_slug":null,"has_3d_model":false,"image_url":null,"decayed_at":null,"tle_current":{"epoch":"2026-05-25T04:00:03.998880Z","epoch_age_seconds":54612,"freshness":"FRESH","line1":"1 68584U 26072M   26145.16671295 -.00215089  00000+0 -96039-2 0  9998","line2":"2 68584  51.8781 288.5830 0006958 303.8684  44.5779 15.21794820  4376","mean_motion":15.2179482,"eccentricity":0.0006958,"inclination_deg":51.8781,"raan_deg":288.583,"arg_perigee_deg":303.8684,"mean_anomaly_deg":44.5779,"bstar":-0.0096039,"rev_number":437,"period_min":94.6251085281,"perigee_km":495.64075654767,"apogee_km":505.21296601703,"semimajor_km":6878.5638612824,"source":"CELESTRAK","updated_at":"2026-05-25T13:38:07.950285Z"}}}